This is the latest recevied weather packets stored in our database for station/object N0KWA. If no packets are shown the sender has not sent any weather packets the latest 10 day(s).
| Time | Temp. | Humidity | Pressure | Rain* | Wind** | Luminosity | Snow |
|---|---|---|---|---|---|---|---|
| 1777816517 | 14.44° C | 91% | 1024.4 hPa | 0 mm | - | 13 W/m² | - |
| 1777816214 | 13.89° C | 95% | 1024.5 hPa | 0 mm | - | 13 W/m² | - |
| 1777815907 | 13.89° C | 98% | 1024.3 hPa | 0 mm | - | 18 W/m² | - |
| 1777815604 | 13.33° C | 99% | 1024.4 hPa | 0 mm | - | 13 W/m² | - |
| 1777815301 | 12.78° C | 99% | 1024.4 hPa | 0 mm | - | 24 W/m² | - |
| 1777814997 | 12.78° C | 99% | 1024.4 hPa | 0 mm | - | 31 W/m² | - |
| 1777814694 | 12.22° C | 99% | 1024.4 hPa | 0 mm | - | 10 W/m² | - |
| 1777814390 | 11.67° C | 99% | 1024.4 hPa | 0 mm | - | 10 W/m² | - |
| 1777814088 | 11.67° C | 99% | 1024.4 hPa | 0 mm | - | 10 W/m² | - |
| 1777813784 | 11.11° C | 99% | 1024.2 hPa | 0 mm | - | 9 W/m² | - |
| 1777813482 | 10.56° C | 99% | 1024.1 hPa | 0 mm | - | 8 W/m² | - |
| 1777813179 | 10.56° C | 99% | 1024.2 hPa | 0 mm | - | 8 W/m² | - |
| 1777812877 | 10° C | 99% | 1023.9 hPa | 0 mm | - | 8 W/m² | - |
| 1777812573 | 10° C | 99% | 1024 hPa | 0 mm | - | 7 W/m² | - |
| 1777812271 | 10° C | 99% | 1023.7 hPa | 0 mm | - | 6 W/m² | - |
| 1777811969 | 9.44° C | 99% | 1023.7 hPa | 0 mm | - | 6 W/m² | - |
| 1777811668 | 9.44° C | 99% | 1023.7 hPa | 0 mm | - | 6 W/m² | - |
| 1777811363 | 8.89° C | 99% | 1023.6 hPa | 0 mm | - | 5 W/m² | - |
| 1777811060 | 8.89° C | 99% | 1023.9 hPa | 0 mm | - | 4 W/m² | - |
| 1777810757 | 8.89° C | 99% | 1023.5 hPa | 0 mm | - | 3 W/m² | - |
| 1777810453 | 8.33° C | 99% | 1023.7 hPa | 0 mm | - | 3 W/m² | - |
| 1777810149 | 8.33° C | 99% | 1023.7 hPa | 0 mm | - | 3 W/m² | - |
| 1777809847 | 8.33° C | 99% | 1023.5 hPa | 0 mm | - | 3 W/m² | - |
| 1777809544 | 8.33° C | 99% | 1023.7 hPa | 0 mm | - | 1 W/m² | - |
| 1777809242 | 8.33° C | 99% | 1023.5 hPa | 0 mm | - | 1 W/m² | - |
* Rain latest hour (hover to see other rain measurements)
** Current wind speed in m/s (hover to see current wind gust speed)